2023/01/31 00:00:00,153.5,-1.8
2023/01/31 00:10:00,153.5,-1.8
2023/01/31 00:20:00,153.4,-1.9
2023/01/31 00:30:00,153.4,-2.3
2023/01/31 00:40:00,153.3,-1.6
2023/01/31 00:50:00,153.1,-2.2
2023/01/31 01:00:00,153.1,-2.7
2023/01/31 01:10:00,153.0,-3.1
2023/01/31 01:20:00,152.9,-2.7
2023/01/31 01:30:00,152.9,-3.3
2023/01/31 01:40:00,152.9,-3.0
2023/01/31 01:50:00,153.1,-3.0
2023/01/31 02:00:00,153.1,-2.9
2023/01/31 02:10:00,152.9,-2.8
2023/01/31 02:20:00,152.8,-2.5
2023/01/31 02:30:00,152.7,-2.4
2023/01/31 02:40:00,152.6,-2.3
2023/01/31 02:50:00,152.5,-2.4
2023/01/31 03:00:00,152.5,-2.0
2023/01/31 03:10:00,152.6,-2.3
2023/01/31 03:20:00,152.7,-2.2
2023/01/31 03:30:00,152.9,-2.4
2023/01/31 03:40:00,152.7,-2.2
2023/01/31 03:50:00,152.5,-1.9
2023/01/31 04:00:00,152.9,-1.8
2023/01/31 04:10:00,152.9,-2.2
2023/01/31 04:20:00,152.7,-2.1
2023/01/31 04:30:00,152.7,-2.4
2023/01/31 04:40:00,152.7,-2.5
2023/01/31 04:50:00,152.4,-2.5
2023/01/31 05:00:00,152.3,-2.7
2023/01/31 05:10:00,152.2,-2.5
2023/01/31 05:20:00,152.1,-2.0
2023/01/31 05:30:00,151.9,-2.5
2023/01/31 05:40:00,151.8,-2.5
2023/01/31 05:50:00,151.7,-2.6
2023/01/31 06:00:00,151.7,-2.7
2023/01/31 06:10:00,151.6,-2.6
2023/01/31 06:20:00,151.5,-2.7
2023/01/31 06:30:00,151.3,-2.8
2023/01/31 06:40:00,151.2,-2.7
2023/01/31 06:50:00,151.2,-2.4
2023/01/31 07:00:00,151.2,-1.9
2023/01/31 07:10:00,151.0,-2.4
2023/01/31 07:20:00,151.0,-2.3
2023/01/31 07:30:00,151.1,-2.2
2023/01/31 07:40:00,151.1,-2.4
2023/01/31 07:50:00,151.2,-2.1
2023/01/31 08:00:00,151.2,-2.0
2023/01/31 08:10:00,151.2,-1.9
2023/01/31 08:20:00,151.2,-1.7
2023/01/31 08:30:00,151.1,-1.4
2023/01/31 08:40:00,151.7,-1.5
2023/01/31 08:50:00,152.0,-1.3
2023/01/31 09:00:00,152.1,-1.3
2023/01/31 09:10:00,152.0,-0.8
2023/01/31 09:20:00,---,-0.6
2023/01/31 09:30:00,161.3,-0.4
2023/01/31 09:40:00,161.2,-0.1
2023/01/31 09:50:00,161.0, 0.1
2023/01/31 10:00:00,160.9, 0.4
2023/01/31 10:10:00,160.6, 0.8
2023/01/31 10:20:00,160.3, 1.4
2023/01/31 10:30:00,160.2, 1.7
2023/01/31 10:40:00,160.1, 2.2
2023/01/31 10:50:00,160.0, 2.4
2023/01/31 11:00:00,160.0, 3.6
2023/01/31 11:10:00,159.8, 4.4
2023/01/31 11:20:00,159.6, 4.7
2023/01/31 11:30:00,159.6, 5.3
2023/01/31 11:40:00,159.4, 5.5
2023/01/31 11:50:00,159.3, 6.2
2023/01/31 12:00:00,159.2, 6.8
2023/01/31 12:10:00,159.1, 7.4
2023/01/31 12:20:00,159.1, 7.9
2023/01/31 12:30:00,158.9, 8.8
2023/01/31 12:40:00,158.9,12.1
2023/01/31 12:50:00,158.7,14.3
2023/01/31 13:00:00,158.5,12.1
2023/01/31 13:10:00,158.3,11.6
2023/01/31 13:20:00,158.3,11.6
2023/01/31 13:30:00,158.2,14.4
2023/01/31 13:40:00,158.1, 9.2
2023/01/31 13:50:00,158.0,11.5
2023/01/31 14:00:00,158.0,11.6
2023/01/31 14:10:00,157.8,14.4
2023/01/31 14:20:00,157.6,17.2
2023/01/31 14:30:00,157.6,13.2
2023/01/31 14:40:00,157.3, 9.4
2023/01/31 14:50:00,157.1, 7.6
2023/01/31 15:00:00,156.8, 8.1
2023/01/31 15:10:00,157.0,16.6
2023/01/31 15:20:00,156.6,16.7
2023/01/31 15:30:00,156.3,16.2
2023/01/31 15:40:00,155.1,18.5
2023/01/31 15:50:00,154.8,11.6
2023/01/31 16:00:00,154.8, 9.0
2023/01/31 16:10:00,154.7,13.1
2023/01/31 16:20:00,154.7, 9.5
2023/01/31 16:30:00,154.7, 6.3
2023/01/31 16:40:00,154.7, 5.1
2023/01/31 16:50:00,154.6, 3.7
2023/01/31 17:00:00,154.6, 2.4
2023/01/31 17:10:00,154.5, 1.2
2023/01/31 17:20:00,154.5, 1.0
2023/01/31 17:30:00,154.4, 0.7
2023/01/31 17:40:00,154.3, 0.6
2023/01/31 17:50:00,154.3, 0.5
2023/01/31 18:00:00,154.1, 0.3
2023/01/31 18:10:00,153.9,-0.5
2023/01/31 18:20:00,153.8,-0.7
2023/01/31 18:30:00,153.7,-0.8
2023/01/31 18:40:00,153.6,-1.1
2023/01/31 18:50:00,153.5,-1.4
2023/01/31 19:00:00,153.3,-1.4
2023/01/31 19:10:00,153.2,-1.9
2023/01/31 19:20:00,153.2,-1.9
2023/01/31 19:30:00,153.1,-2.3
2023/01/31 19:40:00,153.0,-2.1
2023/01/31 19:50:00,152.9,-2.2
2023/01/31 20:00:00,152.8,-1.8
2023/01/31 20:10:00,152.6,-1.6
2023/01/31 20:20:00,152.6,-1.6
2023/01/31 20:30:00,152.5,-1.7
2023/01/31 20:40:00,152.4,-1.9
2023/01/31 20:50:00,152.3,-1.9
2023/01/31 21:00:00,152.2,-2.1
2023/01/31 21:10:00,152.1,-2.5
2023/01/31 21:20:00,152.0,-2.5
2023/01/31 21:30:00,151.9,-2.7
2023/01/31 21:40:00,151.8,-2.8
2023/01/31 21:50:00,151.8,-2.8
2023/01/31 22:00:00,151.7,-3.2
2023/01/31 22:10:00,151.6,-3.1
2023/01/31 22:20:00,151.6,-3.2
2023/01/31 22:30:00,151.7,-3.1
2023/01/31 22:40:00,151.7,-3.2
2023/01/31 22:50:00,151.5,-3.1
2023/01/31 23:00:00,151.2,-3.5
2023/01/31 23:10:00,151.0,-3.6
2023/01/31 23:20:00,150.7,-3.4
2023/01/31 23:30:00,150.6,-3.7
2023/01/31 23:40:00,150.5,-3.6
2023/01/31 23:50:00,150.5,-3.9
